Home > Weather > Mendoza > Past weeks

Flag for Argentina Weather for the Past 2 Weeks in Mendoza, Mendoza, Argentina

Now
46 °F

Sunny.


Feels Like: 46 °F
Forecast: 45 / 62 °F
Wind: No wind

Location: Mendoza Aerodrome

Current Time: May 4, 2016 at 9:50:12 AM

Latest Report: May 4, 2016 at 9:00 AM


Visibility: 10 mi

Pressure: 30.04 "Hg (27.37 "Hg at 767m altitude)

Humidity: 93%

Dew Point: 45 °F

Location of MendozaLocation

Historic Weather in Mendoza — Graph

°F

Mendoza Temperature Yesterday

Maximum temperature yesterday: 64 °F (at 4:00 PM)
Minimum temperature yesterday: 52 °F (at 6:00 AM)
Average temperature yesterday: 57 °F

High & Low Weather Summary for the Past Weeks

 TemperatureHumidityPressure
High84 °F (Apr 23, 3:00 PM)100% (Apr 24, 3:00 PM)30.45 "Hg (Apr 24, 3:00 PM)
Low34 °F (Apr 26, 6:00 AM)9% (Apr 23, 2:00 PM)29.59 "Hg (Apr 23, 3:00 PM)
Average54 °F67%30.06 "Hg
* Reported Apr 19 8:00 AM — May 4 8:00 AM, Mendoza, Weather by CustomWeather, © 2016

Note: Actual official high and low records may vary slightly from our data, if they occured in-between our weather recording intervals... More about our weather records

Advertising

Mendoza Weather History for the Previous 24 Hours

Scroll right to see more
 ConditionsComfort  
Time TempWeatherWind HumidityBarometerVisibility
8:00 AM
Wed, May 4
46 °FSunny.No wind93%30.01 "Hg10 mi
7:00 AM50 °FClear.No wind88%30.01 "Hg10 mi
6:00 AM50 °FClear.No wind88%29.98 "Hg10 mi
5:00 AM50 °FClear.No wind88%30.01 "Hg10 mi
4:00 AM50 °FClear.No wind88%30.01 "Hg10 mi
3:00 AM52 °FClear.No wind82%30.04 "Hg10 mi
2:00 AM52 °FClear.No wind88%30.04 "Hg10 mi
12:00 AM54 °FClear.2 mph82%30.07 "Hg10 mi
11:00 PM
Tue, May 3
54 °FClear.No wind82%30.09 "Hg10 mi
10:00 PM55 °FClear.No wind77%30.07 "Hg10 mi
9:00 PM57 °FClear.No wind72%30.07 "Hg10 mi
8:00 PM59 °FClear.No wind68%30.07 "Hg10 mi
7:00 PM61 °FClear.No wind59%30.07 "Hg10 mi
6:00 PM63 °FClear.7 mph56%30.07 "Hg10 mi
5:00 PM64 °FPassing clouds.6 mph56%30.07 "HgN/A
4:00 PM64 °FPassing clouds.5 mph52%30.07 "HgN/A
3:00 PM63 °FPassing clouds.No wind56%30.09 "HgN/A
2:00 PM63 °FPassing clouds.No wind59%30.12 "HgN/A
1:00 PM61 °FSunny.6 mph55%30.15 "Hg10 mi
12:00 PM59 °FPassing clouds.3 mph59%30.18 "HgN/A
11:00 AM55 °FPartly sunny.No wind67%30.21 "HgN/A
10:00 AM54 °FPassing clouds.No wind72%30.21 "HgN/A
9:00 AM52 °FScattered clouds.No wind82%30.21 "HgN/A
Weather by CustomWeather, © 2016

See weather overviewHow to use our weather pages